GSAT0219 (GALILEO 23)

Last updated on Jan. 23, 2021, 7:11 a.m. UTC

1 43566U 18060C   21022.40676782 -.00000057  00000-0  00000-0 0  9999
2 43566  56.9424  35.0634 0005651 277.7883  82.1897  1.70475987 15577
UTC
Height (km)
Latitude
Longitude
Inclination
Orbital Period
UTC large
Height (km)
Speed (km/s)
/
Latitude / Longitude
Inclination (degrees)
Orbital Period (minutes)
Azimuth
Elevation
Range (km)
Doppler Factor
iOS Compass Heading
iOS Angle

Next 30 passes for location: Hong Kong

Rise time Rise Azimuth (degrees) Set time Set Azimuth (degrees) Duration Max altitude (degrees)

No matching passes for this satellites